Wind_Speed
8 9 11 12 11 11 11 14 15 13 11 10 9 10 11 9 9 8 2 8 10 11 12 12 14 16 16 18 17 16 18 18 17 17 19 19 19 19 19 19 19 18 18 16 17 20 21 23 22 22 23 23 21 20 19 18 17 15 14 13 13 11 10 11 12 12 13 14 14 14 14 16 16 15 15 16 17 19 21 22 23 25 26 28 30 32
9 11 14 13 12 13 10 11 14 16 15 12 12 13 12 8 9 11 7 6 10 13 14 13 16 19 20 20 20 19 20 20 20 20 21 21 20 21 20 20 19 18 18 17 17 18 20 23 24 24 25 25 24 23 21 19 17 16 14 14 13 12 11 11 11 11 13 14 15 15 15 16 16 15 16 15 16 18 19 21 22 23 24 24 25 28
11 13 15 12 12 14 10 8 13 18 20 16 14 14 14 13 13 16 18 16 12 12 13 14 17 21 22 23 22 21 21 21 23 23 23 23 22 23 23 22 21 20 20 19 19 18 19 25 27 26 26 26 25 23 21 20 18 16 14 14 13 12 12 12 12 12 12 14 15 16 16 17 17 15 16 17 16 17 18 20 20 21 22 22 23 25
13 13 14 15 15 14 10 9 9 12 15 14 14 14 15 14 15 15 12 10 8 9 11 12 16 20 21 22 22 21 22 21 21 21 22 23 24 24 24 24 24 24 22 21 22 18 20 28 30 28 27 26 25 23 22 20 19 17 14 14 14 13 13 13 13 12 11 13 14 15 15 16 17 16 16 17 18 18 18 19 19 20 21 21 22 23
16 12 10 14 15 14 12 11 10 9 11 13 14 15 15 14 14 12 5 4 6 11 14 16 16 19 21 21 21 20 22 24 22 21 22 23 24 23 24 25 25 25 23 21 22 19 21 30 29 27 27 26 26 24 22 20 18 16 14 14 15 14 13 11 11 10 9 10 10 11 13 13 14 15 15 16 16 17 17 18 18 19 20 21 22 22
16 11 11 11 9 10 12 12 11 9 10 14 15 16 18 18 14 12 8 7 9 13 16 15 11 14 20 20 20 18 19 23 24 24 24 23 24 24 23 24 24 26 25 23 22 19 22 29 27 25 28 29 28 24 22 20 18 16 15 15 16 15 13 9 8 8 7 7 7 8 9 9 11 11 11 13 14 15 15 16 17 17 18 19 20 21
15 11 12 10 8 8 9 12 13 12 14 15 14 15 17 16 14 13 13 10 11 13 11 12 9 12 18 15 14 15 16 19 20 22 24 23 24 25 24 24 23 26 27 27 27 23 23 29 28 27 30 30 27 23 21 21 18 17 16 16 15 14 12 9 8 8 7 7 6 6 7 7 8 9 9 10 12 14 15 16 16 16 17 17 18 19
15 11 9 9 9 10 12 14 14 15 17 15 10 10 12 12 12 13 14 14 15 14 10 11 12 13 17 17 13 14 17 17 17 18 20 21 22 23 24 24 24 24 23 25 28 26 25 27 27 26 28 28 25 21 20 20 18 17 17 16 15 14 13 10 10 10 9 9 8 8 8 9 9 10 10 11 11 13 15 16 17 17 17 18 18 18
12 13 9 9 12 13 14 15 14 14 15 14 9 9 12 12 12 13 14 15 16 15 14 16 16 12 14 18 16 14 15 14 15 17 18 18 19 19 21 23 22 22 22 23 26 26 26 26 26 26 26 26 24 21 20 19 18 18 18 16 15 15 15 12 11 11 10 10 10 10 11 12 13 13 14 14 14 13 15 16 18 19 19 18 19 19
11 12 11 12 14 14 14 13 13 14 15 12 8 8 11 12 12 13 14 16 16 15 16 18 17 12 10 16 18 15 16 16 14 16 17 17 17 16 17 19 19 20 21 21 23 23 24 26 26 25 25 25 24 22 21 20 19 18 19 18 16 17 16 13 12 12 11 12 12 13 14 14 16 16 16 17 17 16 17 17 18 19 20 20 20 20
13 12 11 12 14 14 15 13 11 11 13 12 9 8 11 13 14 14 14 16 14 12 17 20 20 16 9 13 18 14 14 16 13 12 13 15 17 15 15 17 17 18 18 19 21 20 20 23 25 24 25 25 24 22 22 21 19 18 19 19 18 19 19 16 14 14 13 13 14 15 16 17 18 18 18 19 19 18 18 18 18 18 19 21 21 21
15 15 13 13 14 14 15 15 11 9 10 11 11 10 12 14 15 14 15 15 10 8 16 20 20 20 14 13 16 10 3 8 8 7 7 10 14 15 15 16 16 17 17 19 20 18 17 21 24 25 25 25 24 23 23 21 19 18 19 19 19 20 20 18 16 15 15 15 17 18 18 18 19 20 20 20 20 20 19 18 19 18 18 19 19 20
16 18 16 13 14 14 14 15 13 12 12 12 13 13 13 11 11 11 10 10 10 13 19 19 17 18 15 16 19 14 7 6 8 8 8 9 11 15 16 16 17 17 17 19 19 18 20 22 25 27 26 26 26 22 20 20 19 19 19 19 20 20 20 19 16 16 16 16 18 19 20 20 21 21 21 22 21 21 20 19 19 19 19 19 19 19
13 14 15 14 14 15 15 15 15 14 14 15 15 15 13 9 6 7 7 8 11 14 18 19 16 13 12 13 16 17 15 13 14 14 14 12 11 14 16 16 17 17 16 19 18 18 23 25 25 27 26 27 26 19 17 20 20 19 18 18 19 19 20 19 18 16 17 18 19 21 21 21 22 22 22 23 23 22 21 21 20 20 20 20 20 20
12 11 13 15 15 15 16 16 16 14 14 17 18 17 17 15 10 7 7 7 8 7 7 11 10 7 9 10 12 14 14 14 15 15 15 14 12 14 16 16 16 17 16 17 18 18 24 27 27 27 26 28 28 20 18 21 21 18 18 18 18 19 20 20 18 17 18 20 21 21 21 22 22 23 23 24 24 23 22 22 22 21 21 21 21 21
14 14 12 12 13 14 15 16 16 16 17 16 16 18 20 20 18 15 14 15 16 12 8 9 8 10 13 13 12 13 13 13 13 13 14 15 14 13 15 16 16 17 16 16 17 18 23 27 28 28 26 26 28 24 22 24 23 22 20 18 18 18 20 20 18 18 19 20 21 20 21 22 23 24 24 24 25 24 23 23 23 22 22 21 22 22
14 15 12 11 13 14 14 16 16 17 17 14 14 17 19 19 20 19 16 18 17 11 10 14 13 15 17 16 16 17 18 18 16 15 15 14 14 15 15 17 18 17 17 17 17 19 21 24 26 27 27 26 27 25 25 25 23 22 21 19 19 18 20 20 19 18 19 20 20 20 21 22 23 24 24 24 25 24 23 23 23 23 23 22 23 23
14 16 15 14 15 14 13 15 18 19 19 19 18 18 16 15 17 17 12 10 11 8 10 16 18 18 17 15 16 18 17 18 18 17 17 14 14 16 17 17 18 18 18 18 18 20 21 23 25 27 29 29 27 25 26 26 23 22 22 21 19 18 19 21 20 19 20 20 21 21 21 22 23 24 24 24 24 23 23 23 23 23 23 23 24 24
12 17 18 16 17 17 14 18 22 21 21 24 24 19 16 15 16 16 12 8 8 6 6 13 18 19 19 18 17 17 15 15 15 14 16 16 15 17 18 19 19 18 18 18 19 20 21 24 26 28 29 28 26 25 27 27 26 25 23 22 19 17 19 21 21 20 20 20 21 21 22 22 23 23 24 24 24 24 24 24 23 24 24 24 25 26
12 16 17 15 15 16 16 19 21 21 21 22 23 22 23 22 20 20 17 13 11 7 6 10 13 14 19 19 18 17 16 14 14 13 14 16 17 17 18 20 20 20 20 19 20 20 21 23 26 28 29 28 26 26 26 28 30 28 24 22 21 19 20 23 22 20 20 21 21 21 22 22 23 24 24 24 24 24 25 25 25 26 26 27 27 28
13 15 18 17 15 16 17 17 18 19 20 19 20 21 21 22 23 22 22 21 17 9 6 7 8 13 18 16 14 15 13 12 13 14 15 15 17 19 21 22 24 24 23 21 21 22 21 22 25 27 29 30 29 27 28 30 32 30 25 25 25 22 22 25 24 21 21 22 22 22 23 23 24 24 25 25 25 25 26 26 27 27 28 29 29 30
13 14 18 19 17 18 20 19 18 20 21 21 21 20 18 20 21 15 13 19 20 14 11 8 8 16 20 16 14 14 11 11 12 14 16 16 15 17 18 20 24 26 27 25 23 23 22 22 25 27 30 32 29 27 30 34 35 31 28 27 26 23 24 26 26 24 23 23 24 25 25 26 25 25 25 25 25 26 26 27 28 29 29 30 30 31
15 14 17 21 20 21 23 22 22 22 23 23 23 22 21 21 22 16 10 15 18 17 18 15 11 17 22 20 19 18 14 15 17 16 16 16 15 15 14 14 18 22 26 27 26 24 23 23 25 27 30 31 28 28 35 38 38 34 31 28 26 25 26 28 28 27 25 25 26 26 27 28 28 27 26 25 25 26 26 27 28 29 30 30 31 32
17 14 17 22 23 24 25 25 25 24 24 25 25 24 25 24 26 25 20 19 18 17 18 14 10 16 22 19 18 18 16 17 19 19 19 18 17 18 16 15 15 15 19 23 26 26 24 24 26 27 29 28 27 32 37 38 37 34 30 28 27 27 28 30 30 29 27 26 27 28 28 29 29 28 27 26 26 26 27 28 29 30 30 31 31 32
13 9 12 16 15 16 17 17 17 17 16 18 18 18 20 21 21 21 20 18 16 18 19 13 10 18 23 22 22 20 18 20 20 20 20 19 19 20 20 21 21 18 16 18 22 26 27 27 27 27 27 26 28 33 37 37 37 35 32 30 30 30 30 30 30 30 28 29 29 29 29 29 29 29 27 27 27 28 29 29 30 31 31 32 32 33
13 9 11 13 10 9 10 9 9 9 12 13 15 15 16 17 16 18 19 18 17 20 22 17 17 23 26 28 31 28 24 24 23 21 22 22 22 23 23 25 28 27 25 24 24 26 28 29 29 28 28 27 28 32 35 36 38 37 35 33 32 32 32 31 30 29 29 30 31 30 29 29 29 29 28 28 28 29 30 31 31 32 32 33 34 35
18 15 16 17 18 19 19 19 17 18 20 19 19 19 20 20 21 21 22 21 20 20 22 21 23 25 27 29 32 31 30 29 28 26 27 27 29 30 27 26 29 31 30 29 29 29 29 29 30 29 30 30 31 33 34 35 36 35 35 35 33 32 32 31 30 29 29 30 31 31 30 29 29 29 29 29 29 30 30 31 32 33 33 34 35 36
17 18 19 20 24 28 28 28 27 24 24 24 23 24 26 26 27 26 27 27 25 22 22 25 26 26 27 32 37 40 39 36 32 29 28 30 33 34 33 31 31 32 32 31 30 31 30 30 31 33 34 32 33 35 34 34 34 33 33 35 33 29 29 30 30 29 29 30 31 31 30 30 30 30 29 29 29 30 31 32 33 34 34 35 36 38
16 20 21 21 25 28 27 28 26 24 25 25 25 27 29 29 29 29 30 29 28 26 26 30 33 32 34 40 46 48 43 38 35 33 33 35 36 36 35 33 31 32 34 34 34 34 34 32 32 34 33 31 33 35 33 32 32 30 31 34 33 28 27 29 29 29 30 30 31 31 30 31 31 31 30 29 29 30 31 32 33 34 35 36 38 39
19 22 20 20 25 28 26 25 23 23 25 26 28 31 32 31 29 29 31 31 33 35 35 36 37 40 43 47 47 45 42 40 40 38 37 37 36 34 33 31 30 30 31 33 35 36 38 37 36 36 33 31 33 33 30 29 30 29 32 35 32 27 26 27 28 29 31 31 31 31 31 31 31 31 30 29 30 30 31 32 33 34 35 37 39 41
21 21 19 19 25 28 26 23 22 23 24 26 31 34 32 30 29 30 32 33 33 35 36 35 35 40 46 48 44 40 40 41 39 35 33 32 31 31 30 29 29 29 30 31 32 36 41 41 41 42 38 32 30 31 32 31 30 31 34 34 30 27 26 27 29 30 31 32 32 32 31 30 30 29 29 29 30 31 32 32 33 35 37 39 41 42
20 21 21 19 24 29 25 19 21 24 25 29 36 36 31 29 30 32 33 33 33 33 34 35 36 40 44 43 41 38 36 36 35 32 31 31 29 28 28 27 28 29 31 30 28 31 36 37 38 41 41 34 26 27 33 33 29 32 34 31 29 28 27 28 30 31 31 32 32 32 31 30 29 28 28 29 30 31 32 32 34 36 38 41 43 44
19 21 23 20 24 30 24 17 21 23 22 27 32 28 25 26 28 29 30 31 32 32 34 36 37 37 36 35 35 34 33 34 33 31 32 32 32 31 29 28 27 28 30 32 31 28 29 33 37 39 44 41 27 23 30 32 30 32 33 31 30 29 28 29 29 29 30 31 31 31 30 29 28 28 29 29 30 30 31 33 34 37 39 41 44 44
20 22 24 22 25 29 25 20 21 18 18 25 24 17 17 21 23 26 28 30 31 32 34 35 34 33 32 32 32 32 32 32 31 34 36 37 38 38 36 34 31 30 31 34 36 34 31 32 34 36 41 43 34 28 29 29 28 31 32 31 30 29 29 29 28 27 29 29 29 29 28 27 27 28 28 29 29 30 31 33 34 37 40 42 44 44
23 23 23 23 25 28 27 22 15 14 23 30 25 19 20 22 24 27 29 28 28 30 31 30 30 30 31 31 31 31 34 34 35 38 40 39 39 38 37 37 37 37 36 34 37 39 37 36 35 32 31 35 38 39 34 27 26 31 32 30 29 29 29 27 26 27 28 28 28 27 26 26 27 27 27 28 29 30 31 33 35 38 41 43 44 43
25 24 24 24 24 25 25 20 15 18 27 30 25 22 23 23 26 29 29 28 28 28 28 29 28 28 29 29 29 31 36 38 39 41 39 37 37 34 33 37 40 41 41 38 39 40 38 40 44 37 29 30 35 40 39 32 29 32 32 30 29 28 27 26 25 27 28 28 28 26 26 27 25 25 26 28 29 30 32 34 37 39 42 44 45 43
28 27 26 26 25 25 25 24 23 25 29 30 27 23 22 24 26 27 27 31 32 29 29 30 29 29 31 31 31 33 37 37 39 41 37 34 36 35 35 37 37 37 39 39 39 40 37 39 44 42 35 33 35 38 38 34 32 34 32 29 28 27 26 24 24 27 27 27 27 27 27 25 22 23 26 27 29 32 34 37 39 40 42 45 45 43
29 30 30 28 27 26 25 24 20 17 20 24 22 18 19 21 20 19 23 28 29 27 27 28 29 30 31 31 31 31 32 34 37 36 30 28 33 35 33 33 33 34 36 36 37 39 37 38 43 44 42 41 42 42 36 31 32 33 29 27 27 26 24 23 24 25 25 25 26 26 25 22 20 22 26 28 31 34 36 39 40 41 43 44 43 41
25 27 29 30 30 28 27 23 17 15 20 23 19 17 21 22 20 20 20 21 21 20 19 20 22 24 25 26 27 24 25 29 33 31 28 29 33 33 33 35 36 35 35 35 36 38 38 40 42 40 41 44 46 41 32 28 30 29 25 25 25 23 22 23 22 21 21 23 24 23 22 22 22 24 26 29 32 35 37 40 41 42 43 42 40 39
21 22 25 29 31 30 29 26 23 24 27 25 20 20 24 27 28 22 14 13 14 13 13 15 16 19 22 24 25 23 23 27 30 31 33 35 34 33 35 37 37 36 36 36 35 36 37 40 37 33 36 39 37 30 26 28 29 26 22 22 23 21 21 19 17 17 20 23 24 22 21 21 22 25 27 30 33 36 38 39 39 40 41 39 38 38
21 21 23 27 29 30 29 27 26 28 28 25 22 22 24 26 25 19 14 17 20 20 21 21 20 21 25 26 25 24 23 26 29 32 34 34 35 36 37 38 36 34 34 33 32 32 33 34 31 28 29 28 26 26 28 28 27 23 20 20 21 19 17 16 17 20 22 24 23 20 20 21 23 25 28 31 34 36 37 37 37 37 38 38 38 38
19 20 22 24 25 26 26 26 26 25 25 25 24 23 23 21 17 17 20 25 25 25 27 28 26 28 31 31 30 29 29 30 31 33 33 33 34 36 38 38 36 33 32 31 30 30 31 31 23 17 21 24 25 27 26 25 24 21 19 21 21 19 19 21 23 23 23 22 19 17 18 20 23 26 29 32 34 35 35 35 35 36 37 37 37 37
18 19 21 22 22 22 23 22 19 17 17 19 18 16 17 17 17 21 26 27 25 26 28 30 32 33 33 33 33 34 34 33 33 32 32 33 34 36 37 38 36 34 32 30 28 28 29 28 17 12 16 20 22 23 22 22 22 20 20 21 21 21 23 26 25 23 20 15 13 14 17 21 24 28 31 33 33 33 33 32 33 34 35 35 35 35
17 17 19 20 19 19 20 18 15 14 14 16 18 18 20 23 25 27 27 26 24 24 28 32 33 31 31 32 33 34 33 32 32 32 33 34 34 34 35 35 35 35 32 29 27 24 24 21 13 11 14 16 17 20 21 20 19 17 19 21 21 20 22 24 21 16 11 9 10 13 18 22 26 29 30 31 31 31 30 30 31 32 32 32 33 35
17 16 18 20 19 19 21 24 26 27 25 23 24 26 26 25 27 28 27 26 25 27 30 31 29 29 30 30 30 30 30 30 31 32 33 34 33 32 31 31 31 29 26 24 24 22 21 17 11 8 10 14 16 17 16 15 15 15 18 19 18 19 20 18 12 6 6 9 11 14 19 23 26 27 29 30 30 29 28 27 29 31 32 32 33 35
19 21 22 23 23 24 29 33 34 33 31 29 29 30 28 24 26 29 30 29 30 31 30 28 27 29 28 26 27 28 28 29 31 32 33 33 32 30 26 25 22 15 10 14 18 18 16 12 9 8 10 12 14 14 13 12 13 14 15 17 19 21 20 13 3 3 6 9 12 16 20 22 25 26 27 26 25 25 25 26 29 30 31 32 33 34
21 23 25 25 26 28 32 35 33 30 30 30 31 30 27 24 26 31 33 32 31 30 28 28 29 29 26 25 27 28 28 29 31 33 33 32 30 26 22 20 17 10 9 12 14 12 11 10 10 11 11 12 13 13 11 11 12 13 15 20 23 21 15 6 2 3 5 8 13 17 19 22 24 23 21 20 19 20 24 28 29 29 29 31 33 34
21 24 26 25 26 28 30 33 33 32 32 31 28 25 24 26 30 33 34 32 27 23 23 26 28 29 29 30 30 29 29 31 32 32 32 29 27 23 19 17 14 10 9 10 10 9 8 9 10 11 13 14 14 13 12 11 13 17 20 22 21 17 9 3 3 5 7 9 12 14 17 21 21 17 15 16 17 20 25 29 30 30 30 31 33 35
26 29 29 26 27 29 31 32 31 31 31 26 20 19 24 29 31 30 27 23 19 19 23 25 26 27 29 30 30 31 32 32 31 32 30 25 21 17 15 14 12 11 9 7 7 7 7 8 9 10 12 13 13 13 15 15 16 20 20 18 15 11 5 3 4 5 7 9 11 13 17 19 17 13 12 14 17 21 26 30 31 31 31 31 32 34
28 29 27 26 27 29 30 30 28 27 28 24 20 21 25 27 28 26 21 18 18 21 24 25 25 25 25 27 29 32 33 32 31 31 25 18 14 13 14 13 12 12 9 7 6 6 8 10 11 11 10 11 13 13 17 19 19 20 16 13 12 7 4 4 4 5 5 7 11 15 17 17 15 13 12 14 19 25 30 32 31 31 31 31 32 34
28 28 26 26 27 28 29 28 26 27 30 30 26 25 24 23 26 26 23 20 21 22 23 23 23 23 23 25 28 30 32 32 31 27 18 13 14 15 15 13 11 13 11 8 6 5 7 10 11 12 13 15 14 12 17 21 20 17 12 11 9 4 5 4 3 1 2 5 10 15 18 17 15 14 15 18 23 28 31 32 33 33 33 32 33 35
Wind_Direction
211 223 228 229 231 231 230 229 237 251 264 284 302 305 299 271 236 254 225 165 198 225 230 239 248 254 257 258 255 244 238 232 222 220 218 218 220 223 226 225 221 219 221 228 234 242 250 254 249 246 252 262 275 282 283 285 288 291 291 286 284 282 276 270 265 267 268 268 269 267 267 266 262 262 260 257 257 259 261 261 259 255 251 249 247 246
217 236 236 233 236 237 229 211 227 246 252 271 292 292 294 286 264 270 270 235 242 251 250 252 258 264 262 258 255 244 240 239 231 225 220 220 223 226 229 228 228 225 220 222 230 241 250 250 247 245 247 257 274 281 281 282 285 288 287 281 282 280 273 270 268 267 268 271 273 272 273 273 270 270 268 264 259 259 260 261 263 263 262 259 255 253
232 245 241 238 236 235 244 226 226 238 243 266 290 286 282 278 272 269 261 256 259 259 260 264 266 269 265 258 253 245 240 241 242 240 230 223 226 231 232 230 229 229 227 228 230 234 243 243 241 240 243 257 271 276 276 278 283 285 280 276 278 278 275 271 264 263 265 268 272 274 276 277 277 276 274 273 268 265 262 260 261 265 266 265 262 260
243 250 228 223 233 236 258 270 259 249 248 268 277 272 271 261 266 269 242 224 242 255 258 267 272 272 267 256 250 243 237 237 244 251 245 237 235 233 233 235 235 234 234 236 235 233 237 237 236 239 246 259 267 269 272 276 282 282 274 270 273 275 275 270 263 261 260 262 266 271 273 275 279 280 279 278 275 273 270 265 262 262 265 266 265 266
255 263 225 222 240 245 254 264 274 274 265 266 253 251 259 251 263 277 249 219 269 273 265 268 274 271 265 254 245 241 235 233 238 245 248 250 251 245 236 235 235 239 241 240 239 235 235 234 234 242 249 257 262 264 269 274 278 277 267 266 270 273 273 265 259 256 249 253 258 263 270 274 277 281 283 283 282 280 279 276 270 265 265 266 266 267
251 244 229 238 245 240 248 251 254 256 257 263 251 244 249 248 262 283 290 293 291 284 265 252 258 272 273 256 234 233 236 235 235 236 240 245 250 251 248 242 236 237 235 232 230 225 234 237 233 239 245 250 256 260 266 271 271 269 264 264 267 268 268 254 240 239 231 236 244 252 262 269 276 281 284 286 288 288 287 285 282 277 273 272 270 270
237 235 236 243 238 231 245 244 240 239 247 258 254 248 245 241 251 273 283 280 277 281 253 219 233 279 291 275 233 228 233 232 234 233 235 240 243 245 249 248 242 239 235 231 229 222 232 241 235 236 242 246 251 255 260 265 265 265 265 266 263 257 256 244 228 231 229 231 239 252 262 269 280 287 287 289 293 294 294 292 290 288 284 281 278 275
228 245 240 229 235 239 247 248 241 239 246 252 252 254 252 243 248 262 269 265 263 270 250 227 245 263 279 281 266 246 230 219 223 230 233 238 243 244 244 242 243 245 242 238 239 230 228 239 238 235 236 237 243 250 255 260 263 262 263 264 256 247 249 243 233 238 244 246 250 261 273 277 282 289 291 292 296 298 299 297 295 292 290 288 286 282
231 241 233 228 241 245 247 248 240 231 239 254 261 256 249 249 255 254 254 254 252 258 254 243 242 243 258 265 264 255 238 218 215 227 236 238 242 245 241 239 240 243 242 238 241 234 223 229 234 231 229 230 238 246 251 258 262 258 256 256 248 244 248 244 239 245 252 256 260 265 274 280 282 287 290 289 289 291 295 299 299 296 293 290 289 288
248 239 234 238 241 242 240 240 241 231 228 241 249 248 247 248 254 248 245 252 250 249 253 249 246 250 262 261 258 248 230 219 220 233 240 238 241 244 239 237 233 232 236 234 236 231 217 220 229 228 225 227 234 242 249 256 257 250 246 247 246 245 249 245 243 250 255 262 270 272 276 282 284 285 289 290 289 290 292 295 296 296 295 293 290 288
251 239 233 237 236 238 238 242 250 229 217 232 240 244 251 243 242 244 241 249 257 252 249 249 249 251 260 262 264 261 226 212 224 242 240 232 234 236 233 231 225 224 229 226 227 230 218 216 226 228 223 226 234 242 250 253 250 244 242 245 245 246 250 249 246 254 260 266 273 275 277 281 283 284 287 288 288 288 289 289 290 291 292 293 293 291
243 241 237 237 240 239 240 249 256 227 215 236 241 243 253 242 231 234 237 239 247 255 250 249 245 244 249 248 255 280 257 197 209 227 237 238 233 229 228 227 224 224 225 221 223 233 227 218 223 226 225 228 234 242 250 250 244 243 246 248 245 246 253 254 252 258 265 271 275 276 276 279 280 282 283 284 284 284 285 285 286 286 285 287 289 291
235 239 240 239 239 232 234 244 243 232 228 233 237 239 249 249 231 226 232 232 237 244 246 251 251 246 251 248 247 269 286 235 231 236 251 262 241 228 225 224 225 225 223 221 223 232 232 224 224 228 230 231 235 245 251 244 242 246 248 246 244 247 254 257 258 262 269 275 277 277 278 278 279 280 281 282 283 283 283 282 281 280 280 280 283 285
242 239 238 237 235 226 227 235 232 227 220 219 231 237 239 248 246 240 238 231 240 242 236 245 259 263 265 253 248 262 270 263 256 247 250 260 247 232 227 224 226 225 221 223 227 231 233 231 228 230 234 234 236 246 248 240 240 244 244 244 244 247 253 259 260 264 270 275 276 278 279 280 281 281 282 283 283 282 283 282 280 278 276 276 277 279
261 249 235 235 237 223 218 229 241 250 240 225 226 233 242 254 260 264 260 256 277 283 243 238 244 250 261 254 246 255 263 267 261 248 248 255 250 240 233 230 229 229 226 225 226 230 236 240 241 239 236 234 239 247 246 247 249 247 245 244 244 248 255 259 262 267 273 276 277 279 282 283 284 284 284 284 283 283 284 284 282 279 276 273 273 275
266 261 249 246 244 227 222 230 241 258 262 251 242 238 243 253 260 268 276 281 292 304 287 261 240 233 247 250 249 256 261 264 263 258 255 252 246 240 236 234 232 232 235 234 229 228 238 248 251 250 245 241 245 246 242 249 254 253 252 248 245 251 257 262 267 272 276 278 279 281 283 284 284 283 283 283 283 284 285 285 283 281 277 274 273 274
269 268 265 264 251 232 234 243 242 246 255 262 264 254 248 250 258 270 280 278 280 284 274 267 262 257 255 249 249 257 260 258 259 260 258 250 242 238 236 237 236 235 236 238 233 228 237 248 252 253 253 252 252 249 245 249 251 250 252 248 245 251 259 266 273 277 279 280 281 282 282 282 282 282 282 282 282 284 285 284 283 281 279 276 275 274
276 276 269 267 261 244 238 248 249 248 250 254 259 262 262 259 257 261 268 266 260 261 259 253 251 253 257 257 257 257 256 261 266 260 253 255 251 244 241 240 240 239 237 237 237 231 232 243 251 254 257 258 257 250 246 250 252 250 248 244 243 251 264 272 276 280 282 282 283 283 283 282 282 282 282 282 283 284 284 283 283 281 279 277 276 276
274 277 269 263 264 261 252 252 254 251 251 256 260 264 266 266 260 250 246 252 252 253 259 253 251 252 255 260 263 260 258 267 277 266 254 260 258 248 245 244 242 242 241 238 239 237 232 236 245 251 255 256 253 246 244 247 250 251 249 245 245 257 269 274 278 282 283 282 283 285 284 284 283 283 282 282 282 282 282 282 281 279 278 277 277 278
269 275 273 263 262 268 264 259 259 255 252 255 258 259 260 262 264 260 257 260 254 250 258 261 261 260 257 257 259 263 266 267 271 269 263 263 259 250 247 246 245 243 244 243 242 242 240 235 236 243 249 248 243 244 247 244 245 250 252 249 252 261 268 272 278 281 282 282 284 286 287 285 284 283 282 281 281 280 280 279 279 278 277 278 279 279
269 268 271 269 266 266 260 253 255 255 253 255 257 260 260 260 264 268 265 259 258 265 270 265 264 260 260 262 265 271 275 275 275 275 276 273 262 255 251 250 251 246 243 245 244 243 242 238 233 234 239 241 240 244 248 244 245 251 253 252 256 262 265 270 276 280 282 284 286 289 291 289 287 285 283 281 279 278 278 278 277 278 279 279 280 280
266 263 272 275 268 260 256 254 257 258 258 261 264 266 265 261 263 268 262 256 260 268 269 271 271 262 262 266 274 282 286 291 294 284 281 285 279 269 264 259 258 253 247 246 247 245 240 236 232 228 232 240 243 241 239 241 246 251 253 254 257 260 264 271 276 280 284 285 288 292 293 294 293 290 286 284 281 280 279 278 279 280 281 281 281 281
263 260 270 274 269 265 264 265 265 265 266 266 266 266 266 265 264 262 262 267 269 268 270 276 275 267 265 263 270 284 289 288 291 282 278 289 290 282 276 267 263 263 259 252 249 249 244 236 232 230 233 240 241 233 232 238 244 249 253 254 255 261 266 272 277 279 281 284 288 291 294 296 297 294 291 289 286 284 283 282 283 282 283 283 283 283
268 261 267 272 273 273 272 270 266 262 262 264 265 264 263 264 264 264 270 280 278 268 268 272 265 264 266 260 267 287 294 288 288 285 281 281 280 277 274 267 263 268 270 260 252 252 248 240 237 236 236 239 237 233 235 241 244 247 250 250 254 260 263 268 275 277 279 283 287 290 293 296 297 295 293 291 290 288 287 286 285 285 285 286 287 288
272 264 265 273 280 279 274 269 262 259 262 267 272 271 266 267 269 270 275 281 276 264 261 263 263 265 267 267 270 280 289 288 287 289 286 283 284 288 286 278 271 267 262 255 251 251 249 245 242 240 238 235 233 235 238 241 243 245 248 250 253 256 257 263 271 275 279 284 287 289 292 295 295 294 292 291 290 289 288 287 287 287 288 289 291 292
266 265 260 266 270 269 268 261 268 301 313 300 291 284 277 276 275 273 276 274 267 264 263 265 269 270 273 278 277 277 280 283 283 282 281 280 283 289 290 287 284 278 263 248 244 244 245 246 244 241 238 234 231 235 238 239 242 246 250 251 250 252 257 263 267 272 278 283 286 289 291 293 293 292 290 289 289 288 288 288 289 290 292 293 294 295
265 266 258 258 260 261 266 271 283 305 308 296 286 279 275 274 272 272 272 266 264 269 268 267 270 273 277 282 282 279 277 278 281 282 281 280 281 284 284 281 282 282 273 259 250 245 243 243 242 240 238 234 233 235 235 238 243 246 250 252 250 252 258 262 265 271 277 282 285 288 291 292 291 289 289 289 289 289 289 290 291 293 295 296 296 296
264 264 259 258 260 261 266 272 280 288 288 283 280 277 272 271 270 269 268 266 270 275 271 270 272 274 276 276 275 275 275 277 283 288 288 284 281 281 280 276 274 276 276 268 259 253 247 241 239 239 237 235 236 236 233 238 243 241 242 249 253 253 257 261 265 271 276 280 284 288 291 291 290 289 289 289 288 289 290 292 293 295 296 297 296 295
262 261 261 260 262 264 266 271 276 277 276 274 273 271 269 267 266 268 270 272 274 273 271 274 275 274 274 272 272 275 278 281 286 289 289 286 284 283 282 280 274 270 271 269 263 258 254 246 239 237 234 231 233 233 232 236 240 234 233 245 255 257 259 262 265 269 273 278 283 287 289 290 289 289 289 289 289 289 290 292 293 294 294 293 292 292
257 256 260 262 265 268 267 270 275 276 275 273 270 267 265 266 269 272 272 272 272 271 271 273 273 273 274 273 274 278 282 285 287 289 290 288 286 284 282 281 277 270 268 269 266 261 259 256 251 244 237 230 227 229 230 229 229 229 235 247 259 265 264 265 266 267 271 277 282 285 286 286 287 288 288 288 288 289 290 291 291 291 291 290 290 291
253 253 260 264 269 271 269 271 274 274 275 273 268 265 266 270 274 272 270 270 271 272 272 273 273 272 272 272 275 279 282 286 289 290 290 289 287 284 281 281 281 275 267 266 267 265 262 262 260 253 244 234 225 225 228 226 225 232 242 253 263 268 269 267 265 265 270 275 279 281 282 283 284 285 285 285 286 287 288 289 290 290 290 291 291 292
253 254 259 263 269 271 271 274 273 273 276 273 267 265 268 271 270 269 269 271 272 273 275 275 273 270 271 274 277 279 282 285 287 288 288 284 281 280 279 279 281 279 269 261 263 266 263 262 262 256 246 234 221 221 226 226 228 236 246 257 265 269 273 271 266 267 269 273 276 279 280 282 284 285 284 284 286 288 288 289 290 291 292 293 294 294
255 255 257 258 265 269 272 274 275 280 280 269 265 268 269 268 269 271 272 270 269 271 273 273 273 275 278 280 280 281 282 282 285 285 282 277 274 271 270 272 278 281 274 264 257 255 256 259 262 261 251 239 225 221 224 224 227 237 247 258 264 271 275 272 269 269 269 272 276 279 282 284 285 284 284 286 288 288 289 290 291 292 294 295 296 296
254 254 257 258 263 270 275 278 279 279 266 259 264 272 272 273 278 279 277 274 271 271 272 274 276 279 280 279 281 282 279 277 278 276 272 271 272 272 272 271 272 276 278 274 264 251 247 253 261 266 259 245 234 230 224 218 226 238 247 255 261 269 274 272 271 271 270 274 277 279 283 285 284 285 287 288 289 289 290 291 293 295 296 297 297 298
251 251 254 256 260 268 276 277 271 259 255 261 271 277 274 277 281 280 279 278 276 275 277 280 281 282 281 281 281 278 272 268 268 269 271 272 273 277 280 276 271 271 273 275 270 259 249 249 257 265 259 245 242 245 236 224 229 237 243 252 260 267 270 270 272 273 273 276 277 278 282 281 282 287 289 289 290 292 293 295 297 299 300 300 300 301
247 248 251 253 255 263 269 265 256 259 266 272 279 282 278 275 274 277 278 274 272 276 280 283 283 280 277 278 277 273 271 269 267 268 274 280 280 280 279 276 274 273 272 270 269 265 257 250 254 260 254 239 240 243 237 228 226 229 237 250 258 261 266 269 271 274 276 278 278 278 279 279 281 287 290 292 295 297 299 301 304 306 306 304 303 304
242 243 246 249 249 252 258 260 262 269 274 276 277 278 275 271 271 277 281 277 275 277 279 280 279 274 270 271 272 273 274 273 271 272 277 282 280 275 275 278 279 279 278 273 270 269 264 255 253 252 249 244 240 236 231 226 222 223 232 247 253 255 263 268 271 274 277 278 278 278 279 280 283 288 293 298 302 304 307 308 309 310 309 306 305 306
239 239 241 245 248 250 256 263 267 268 269 272 274 275 274 274 277 285 289 287 284 282 280 278 277 277 278 277 275 273 274 273 273 276 282 284 279 278 281 282 281 282 282 278 272 268 261 254 248 243 243 246 242 235 228 218 215 221 230 240 248 255 264 267 268 274 277 277 276 279 285 293 298 301 304 307 308 309 311 311 311 311 308 306 306 306
242 241 241 243 247 250 253 258 260 261 265 271 279 282 278 277 287 297 296 290 285 282 280 279 278 281 284 283 282 283 282 280 279 281 284 285 286 288 286 282 280 282 282 279 275 268 258 253 249 238 231 235 235 231 224 213 213 222 230 238 248 256 261 264 269 272 270 270 276 286 299 307 309 308 308 309 309 311 312 312 312 310 307 307 307 305
248 248 248 247 248 251 253 255 259 262 267 272 275 276 275 277 285 293 293 283 278 274 277 284 288 290 290 291 293 293 287 283 283 284 286 288 291 292 289 288 287 285 282 279 276 272 263 255 246 224 212 219 223 217 210 210 217 222 226 236 249 254 257 264 263 254 254 267 281 295 306 310 310 309 310 310 311 312 313 312 311 309 307 307 307 305
254 254 255 255 256 257 257 260 262 264 269 270 266 269 279 284 283 277 269 274 278 276 278 283 290 299 302 299 295 290 287 286 286 287 288 291 294 292 290 290 289 285 281 278 277 275 263 247 232 212 200 203 204 197 198 207 218 228 233 239 244 244 246 244 234 238 258 276 286 296 305 309 310 309 309 309 310 311 312 312 310 308 308 309 309 307
263 263 261 261 263 264 264 265 267 269 271 272 272 277 285 284 275 270 276 282 283 284 286 284 286 295 300 299 294 292 295 299 299 296 294 292 292 292 291 289 287 283 278 274 277 275 253 228 214 200 194 197 199 203 209 217 229 241 246 240 234 231 230 231 235 249 268 278 285 297 307 308 306 305 306 309 312 314 315 315 313 311 311 312 311 309
267 269 266 263 263 267 268 266 267 272 279 286 292 295 288 281 283 291 296 295 292 291 291 290 292 296 295 292 291 290 293 299 303 302 296 291 290 291 292 290 287 283 278 273 273 264 235 213 198 189 196 202 207 216 227 234 241 249 244 233 228 227 231 238 247 257 267 276 293 306 306 304 306 309 314 317 319 319 319 317 316 314 314 314 313 310
270 268 269 269 269 271 270 266 262 266 279 295 303 301 296 295 296 296 297 296 291 290 290 291 295 297 293 289 290 291 292 296 301 302 297 293 293 294 292 290 288 286 281 271 261 244 216 198 187 191 207 217 223 229 236 240 246 246 233 228 227 225 232 245 252 255 271 304 318 310 306 310 316 320 321 321 319 317 316 317 319 319 318 319 318 316
270 271 273 275 275 273 271 269 266 265 270 280 290 290 289 292 291 286 285 286 285 286 290 292 295 296 292 289 290 291 292 295 299 301 299 297 297 295 292 294 294 289 276 257 238 218 200 193 186 190 215 230 233 234 236 239 240 232 222 223 221 214 225 245 254 268 318 328 319 313 317 322 324 324 322 319 316 313 314 322 329 329 327 325 325 323
275 277 276 276 276 275 274 272 273 275 277 279 282 281 280 286 291 288 285 286 287 287 288 291 297 299 296 291 289 291 292 295 298 301 302 301 298 294 290 292 292 279 237 209 200 191 184 181 177 188 211 224 233 239 238 234 231 222 211 207 207 212 225 239 259 10 335 318 315 320 325 326 325 325 324 321 318 318 324 333 339 339 335 332 329 328
281 279 278 280 281 280 279 278 279 283 282 280 282 281 279 282 287 285 285 287 288 288 288 288 291 295 299 301 300 297 296 297 299 302 303 300 294 289 282 275 269 247 183 168 170 166 162 167 182 201 216 226 237 239 227 214 210 201 191 195 207 222 231 222 78 9 321 316 323 327 332 332 332 333 331 324 322 328 336 341 342 342 341 337 334 334
283 283 286 288 286 283 283 284 285 288 286 284 286 286 283 282 281 281 283 286 286 289 294 294 291 292 297 304 305 301 299 299 300 301 302 297 289 282 269 253 240 217 186 167 150 144 162 190 211 223 225 231 238 228 206 193 191 192 194 201 213 224 221 166 50 351 326 321 327 337 342 337 334 335 329 323 325 333 339 343 344 344 344 343 341 339
281 283 285 286 285 284 283 283 287 290 287 282 277 272 274 277 276 277 283 290 292 296 298 298 297 297 299 303 304 301 300 300 298 299 299 293 280 268 248 225 200 178 168 151 135 150 177 196 219 231 225 226 230 214 188 176 190 205 204 199 205 208 179 100 12 341 320 320 338 351 343 332 329 330 328 328 335 340 344 347 348 346 346 347 345 343
279 281 283 284 282 282 282 285 290 292 287 282 276 272 274 275 274 278 290 302 302 300 300 302 304 303 302 304 304 302 301 299 297 297 294 281 255 231 213 200 178 158 143 126 137 175 191 194 206 215 212 219 228 209 175 168 193 218 211 188 189 184 107 51 346 314 300 329 355 350 333 324 328 334 335 337 344 349 350 349 347 347 348 349 348 348
279 278 281 281 279 278 279 282 287 287 284 283 281 277 277 279 277 281 292 300 299 300 303 305 306 307 308 308 306 303 301 300 299 296 282 250 224 208 197 186 165 146 140 138 146 172 202 213 208 195 199 220 228 199 165 168 192 215 206 180 175 130 65 31 355 337 286 325 347 340 331 334 339 343 350 352 353 355 354 350 348 349 350 350 352 353
Height
3109 3109 3109 3109 3109 3109 3109 3110 3108 3107 3106 3107 3107 3107 3106 3105 3106 3107 3106 3106 3107 3109 3110 3111 3110 3110 3110 3110 3111 3110 3108 3107 3110 3112 3114 3115 3116 3116 3116 3118 3119 3120 3121 3122 3121 3119 3118 3117 3117 3116 3115 3115 3116 3117 3118 3119 3119 3119 3120 3120 3120 3120 3121 3120 3120 3120 3120 3120 3121 3121 3122 3121 3122 3123 3124 3125 3125 3125 3125 3126 3126 3127 3129 3131 3133 3133
3108 3108 3107 3108 3108 3107 3107 3107 3105 3105 3106 3107 3107 3107 3106 3106 3107 3107 3106 3106 3106 3108 3109 3109 3109 3108 3108 3108 3109 3109 3108 3105 3106 3108 3111 3112 3114 3114 3115 3116 3117 3118 3119 3121 3121 3119 3117 3115 3114 3114 3114 3113 3114 3115 3116 3117 3118 3118 3118 3118 3119 3119 3119 3119 3119 3120 3120 3120 3119 3120 3120 3120 3120 3122 3122 3123 3124 3123 3124 3124 3124 3124 3126 3128 3129 3130
3107 3106 3106 3106 3105 3106 3106 3105 3105 3105 3106 3107 3107 3107 3106 3107 3107 3106 3105 3105 3105 3106 3107 3107 3107 3106 3105 3105 3105 3106 3107 3105 3103 3104 3107 3109 3111 3112 3113 3114 3115 3116 3117 3118 3119 3119 3118 3115 3112 3112 3113 3113 3113 3114 3115 3116 3117 3117 3117 3117 3118 3118 3118 3118 3118 3119 3119 3119 3119 3119 3119 3119 3119 3120 3121 3121 3122 3122 3122 3123 3123 3123 3124 3125 3125 3126
3106 3104 3104 3104 3103 3105 3106 3106 3105 3106 3106 3107 3108 3107 3107 3107 3107 3106 3104 3103 3104 3104 3105 3105 3105 3103 3102 3101 3102 3103 3104 3105 3103 3102 3102 3104 3107 3109 3110 3111 3112 3113 3114 3116 3116 3118 3118 3114 3111 3111 3111 3112 3112 3112 3113 3114 3115 3116 3116 3116 3116 3117 3117 3117 3117 3118 3119 3118 3118 3118 3118 3118 3118 3118 3119 3119 3120 3120 3121 3121 3122 3122 3122 3123 3123 3124
3104 3102 3102 3102 3103 3105 3106 3105 3105 3106 3107 3108 3107 3107 3107 3106 3106 3105 3104 3103 3103 3103 3103 3104 3103 3101 3099 3098 3099 3100 3101 3102 3102 3102 3101 3101 3102 3104 3106 3108 3109 3110 3112 3113 3114 3115 3115 3112 3110 3110 3110 3110 3111 3111 3111 3113 3114 3114 3115 3115 3115 3116 3116 3116 3116 3117 3118 3117 3118 3117 3117 3117 3117 3117 3117 3117 3118 3118 3119 3119 3120 3120 3121 3121 3121 3122
3102 3101 3101 3102 3103 3104 3105 3105 3105 3106 3107 3107 3106 3105 3105 3104 3104 3104 3104 3103 3103 3102 3101 3102 3102 3098 3095 3095 3095 3096 3098 3098 3099 3100 3101 3101 3100 3101 3102 3103 3106 3107 3109 3110 3111 3113 3113 3110 3109 3109 3108 3109 3109 3110 3110 3111 3113 3113 3113 3114 3114 3114 3115 3115 3116 3116 3117 3117 3117 3117 3116 3116 3116 3116 3116 3116 3116 3117 3117 3117 3118 3118 3119 3119 3119 3120
3099 3098 3100 3102 3102 3103 3104 3104 3104 3105 3105 3104 3103 3103 3102 3102 3103 3103 3103 3103 3102 3101 3099 3100 3101 3097 3093 3092 3092 3094 3095 3095 3096 3097 3098 3100 3100 3100 3100 3101 3102 3103 3105 3106 3107 3109 3110 3107 3108 3108 3107 3107 3108 3109 3109 3110 3111 3111 3111 3112 3112 3113 3113 3114 3115 3115 3115 3116 3116 3116 3115 3115 3115 3115 3115 3115 3115 3115 3115 3115 3116 3116 3117 3117 3118 3118
3097 3098 3099 3101 3102 3102 3102 3102 3103 3103 3103 3101 3101 3102 3101 3101 3102 3103 3103 3103 3102 3101 3099 3098 3099 3097 3093 3091 3091 3091 3091 3091 3094 3095 3096 3097 3098 3098 3099 3099 3100 3100 3102 3103 3103 3106 3107 3105 3105 3106 3106 3106 3106 3107 3108 3109 3110 3110 3110 3110 3111 3112 3112 3113 3114 3114 3114 3114 3115 3114 3114 3114 3114 3114 3114 3114 3114 3113 3113 3113 3113 3114 3115 3115 3115 3116
3096 3098 3098 3099 3100 3100 3100 3100 3100 3101 3101 3100 3100 3101 3101 3101 3101 3102 3102 3101 3101 3100 3098 3096 3096 3093 3091 3090 3089 3089 3088 3088 3090 3092 3094 3095 3095 3096 3097 3097 3098 3099 3099 3100 3100 3101 3103 3103 3103 3103 3104 3105 3105 3106 3107 3107 3108 3108 3108 3108 3109 3110 3111 3112 3113 3113 3113 3113 3113 3113 3113 3112 3112 3112 3112 3112 3112 3112 3111 3111 3111 3111 3112 3112 3113 3113
3096 3097 3097 3098 3099 3099 3099 3098 3098 3099 3099 3099 3099 3100 3100 3100 3100 3101 3101 3100 3099 3097 3094 3093 3093 3089 3086 3086 3086 3086 3085 3086 3088 3090 3091 3092 3093 3094 3094 3095 3096 3097 3097 3097 3097 3098 3100 3101 3100 3101 3102 3103 3104 3104 3105 3106 3106 3107 3107 3107 3108 3108 3109 3111 3111 3111 3111 3111 3111 3111 3111 3111 3110 3110 3110 3109 3110 3110 3110 3110 3109 3109 3109 3109 3110 3110
3096 3096 3096 3096 3097 3097 3097 3097 3097 3097 3097 3097 3098 3099 3100 3099 3099 3099 3099 3099 3097 3093 3090 3090 3091 3089 3085 3084 3084 3083 3083 3084 3086 3088 3088 3090 3091 3092 3093 3093 3094 3095 3095 3095 3095 3095 3097 3098 3098 3099 3100 3101 3102 3103 3103 3104 3104 3105 3105 3106 3107 3107 3107 3109 3110 3110 3110 3110 3110 3110 3110 3110 3109 3109 3109 3108 3108 3109 3108 3108 3108 3107 3107 3107 3107 3108
3094 3094 3094 3095 3095 3096 3096 3096 3096 3096 3096 3097 3098 3099 3098 3096 3096 3097 3096 3097 3095 3091 3088 3088 3088 3086 3083 3082 3083 3083 3082 3084 3086 3086 3087 3088 3089 3090 3091 3092 3092 3093 3094 3094 3093 3093 3094 3096 3096 3097 3098 3099 3100 3100 3101 3101 3102 3103 3103 3104 3105 3105 3105 3107 3108 3108 3108 3108 3108 3108 3108 3108 3108 3108 3108 3107 3107 3107 3107 3107 3106 3106 3105 3105 3105 3105
3092 3092 3092 3093 3093 3094 3095 3095 3094 3095 3096 3097 3097 3098 3097 3093 3092 3093 3092 3093 3091 3087 3086 3085 3084 3082 3079 3080 3082 3082 3083 3084 3085 3086 3087 3088 3088 3088 3089 3090 3090 3091 3092 3092 3092 3092 3092 3092 3093 3094 3095 3096 3096 3098 3099 3100 3100 3101 3101 3102 3103 3103 3103 3104 3106 3106 3106 3106 3106 3106 3106 3106 3106 3106 3106 3105 3105 3105 3105 3105 3105 3104 3104 3104 3103 3103
3090 3090 3090 3091 3091 3091 3092 3093 3092 3092 3093 3095 3095 3095 3094 3092 3090 3088 3087 3086 3084 3082 3082 3084 3083 3080 3078 3080 3081 3081 3082 3083 3084 3084 3085 3087 3087 3087 3087 3089 3089 3089 3091 3091 3092 3092 3090 3089 3091 3092 3093 3093 3093 3095 3097 3097 3098 3099 3099 3101 3101 3102 3102 3102 3103 3104 3104 3104 3104 3103 3103 3103 3103 3103 3104 3103 3103 3103 3103 3103 3103 3103 3102 3102 3102 3101
3088 3087 3088 3089 3089 3089 3090 3091 3091 3090 3090 3091 3092 3093 3091 3089 3088 3086 3084 3082 3081 3080 3081 3082 3081 3080 3079 3080 3080 3081 3081 3081 3082 3082 3083 3084 3086 3087 3087 3088 3088 3088 3089 3090 3091 3091 3088 3087 3088 3089 3091 3091 3091 3093 3094 3094 3096 3097 3097 3099 3099 3100 3100 3100 3101 3102 3102 3101 3101 3101 3101 3101 3101 3101 3101 3101 3100 3100 3101 3100 3100 3100 3100 3100 3100 3099
3087 3085 3086 3087 3087 3088 3089 3090 3090 3090 3089 3088 3089 3089 3088 3088 3088 3085 3083 3082 3081 3081 3080 3079 3079 3079 3079 3079 3079 3080 3080 3080 3081 3081 3081 3082 3084 3085 3086 3087 3088 3088 3088 3088 3089 3090 3088 3085 3086 3086 3087 3089 3089 3091 3091 3091 3092 3094 3095 3096 3097 3097 3097 3098 3098 3099 3099 3099 3099 3099 3099 3098 3098 3098 3098 3098 3098 3098 3098 3098 3097 3097 3097 3097 3097 3097
3086 3084 3084 3085 3085 3086 3087 3088 3089 3088 3087 3087 3086 3085 3085 3087 3087 3085 3084 3083 3083 3082 3080 3078 3078 3078 3077 3077 3077 3078 3078 3079 3079 3079 3080 3081 3081 3083 3084 3085 3086 3087 3087 3087 3087 3089 3088 3084 3083 3084 3085 3086 3087 3088 3089 3089 3090 3091 3092 3093 3095 3095 3095 3095 3096 3097 3096 3096 3096 3096 3096 3096 3096 3096 3096 3095 3095 3095 3095 3095 3095 3095 3094 3094 3094 3094
3086 3083 3083 3084 3083 3083 3086 3086 3086 3086 3086 3085 3084 3083 3084 3085 3085 3085 3084 3083 3083 3081 3078 3076 3076 3076 3075 3074 3074 3075 3076 3076 3077 3077 3078 3078 3079 3081 3082 3083 3085 3085 3086 3086 3086 3087 3087 3085 3082 3082 3083 3083 3084 3085 3085 3086 3087 3088 3090 3091 3092 3093 3093 3092 3093 3094 3094 3094 3093 3093 3093 3093 3093 3093 3093 3093 3093 3093 3093 3092 3092 3092 3092 3091 3091 3091
3086 3083 3081 3083 3082 3082 3084 3084 3082 3082 3084 3082 3081 3082 3083 3082 3081 3082 3081 3080 3080 3079 3075 3074 3073 3073 3073 3072 3073 3073 3073 3075 3075 3075 3076 3077 3078 3080 3081 3082 3083 3084 3084 3084 3085 3085 3086 3085 3082 3080 3080 3081 3081 3083 3084 3084 3084 3085 3087 3088 3089 3090 3090 3090 3090 3091 3091 3091 3091 3090 3091 3090 3090 3090 3090 3090 3090 3090 3090 3090 3090 3089 3089 3088 3088 3088
3086 3083 3079 3080 3082 3081 3081 3080 3078 3079 3081 3081 3081 3081 3082 3081 3079 3078 3076 3076 3076 3075 3073 3072 3071 3070 3070 3071 3071 3072 3072 3073 3074 3074 3076 3076 3077 3078 3079 3080 3081 3082 3082 3083 3083 3083 3083 3083 3082 3080 3079 3079 3079 3081 3082 3083 3081 3082 3084 3085 3086 3087 3087 3087 3087 3088 3088 3088 3088 3088 3088 3088 3087 3087 3087 3087 3087 3087 3087 3087 3087 3086 3086 3085 3085 3085
3084 3083 3079 3078 3080 3079 3078 3078 3077 3078 3079 3079 3079 3079 3079 3079 3078 3076 3074 3072 3072 3070 3069 3070 3069 3068 3069 3070 3070 3070 3071 3072 3073 3074 3075 3075 3075 3075 3076 3077 3078 3079 3080 3080 3081 3081 3081 3081 3081 3079 3077 3077 3078 3079 3080 3079 3078 3079 3081 3082 3082 3083 3084 3083 3084 3085 3085 3085 3085 3085 3085 3085 3085 3085 3084 3084 3084 3084 3084 3084 3083 3083 3083 3082 3082 3081
3082 3081 3078 3077 3077 3076 3075 3075 3076 3076 3076 3076 3077 3076 3077 3077 3077 3076 3074 3071 3071 3069 3068 3069 3067 3066 3068 3069 3068 3069 3070 3071 3071 3071 3072 3073 3074 3074 3074 3075 3076 3077 3078 3078 3078 3079 3079 3078 3078 3077 3076 3075 3076 3078 3077 3075 3076 3077 3078 3078 3079 3080 3080 3080 3081 3082 3082 3082 3082 3082 3082 3082 3082 3082 3081 3081 3081 3081 3081 3080 3080 3080 3079 3079 3078 3078
3078 3080 3078 3075 3074 3073 3072 3073 3073 3073 3073 3073 3073 3073 3074 3074 3073 3073 3071 3069 3069 3068 3068 3068 3065 3064 3067 3068 3067 3068 3069 3069 3069 3069 3070 3070 3070 3070 3070 3071 3073 3074 3075 3076 3077 3077 3077 3077 3076 3075 3073 3072 3074 3075 3073 3072 3074 3075 3075 3075 3076 3077 3077 3077 3077 3078 3079 3079 3079 3079 3079 3078 3078 3078 3078 3078 3077 3077 3077 3076 3076 3076 3075 3075 3074 3074
3076 3078 3077 3073 3072 3070 3069 3069 3069 3070 3071 3070 3070 3070 3071 3070 3070 3069 3067 3067 3067 3066 3066 3066 3063 3062 3064 3066 3066 3066 3067 3068 3068 3068 3068 3067 3066 3066 3066 3067 3068 3070 3071 3073 3074 3075 3075 3075 3074 3073 3071 3071 3071 3070 3069 3070 3072 3072 3073 3073 3073 3073 3074 3073 3073 3074 3075 3075 3075 3076 3076 3075 3075 3075 3074 3074 3074 3073 3073 3072 3072 3071 3071 3070 3070 3069
3075 3077 3076 3073 3070 3068 3066 3065 3065 3067 3069 3068 3067 3067 3067 3066 3067 3066 3065 3065 3064 3063 3064 3063 3060 3060 3062 3062 3062 3063 3064 3065 3066 3067 3066 3066 3065 3065 3065 3065 3065 3066 3067 3068 3069 3071 3072 3072 3072 3071 3070 3070 3069 3067 3066 3067 3068 3069 3070 3070 3070 3070 3070 3070 3070 3071 3071 3071 3072 3072 3073 3072 3072 3071 3071 3070 3070 3069 3069 3068 3068 3067 3067 3066 3066 3065
3074 3075 3075 3073 3070 3067 3065 3064 3063 3065 3067 3066 3065 3065 3065 3065 3065 3064 3064 3064 3062 3060 3061 3061 3059 3059 3060 3058 3058 3059 3060 3061 3062 3063 3063 3063 3063 3063 3063 3063 3063 3064 3064 3064 3064 3065 3067 3068 3068 3069 3069 3069 3068 3065 3062 3063 3064 3064 3065 3066 3067 3066 3066 3066 3067 3067 3068 3068 3068 3069 3069 3069 3069 3068 3067 3067 3066 3066 3065 3064 3063 3063 3062 3062 3061 3061
3073 3072 3072 3071 3069 3065 3063 3062 3063 3065 3065 3065 3064 3064 3063 3063 3063 3063 3062 3061 3060 3059 3058 3058 3059 3058 3057 3056 3055 3055 3056 3057 3058 3059 3059 3059 3059 3059 3060 3060 3060 3060 3061 3062 3061 3061 3061 3062 3063 3065 3066 3066 3066 3064 3061 3060 3060 3060 3060 3061 3063 3063 3063 3063 3064 3064 3065 3064 3064 3065 3066 3066 3065 3065 3064 3063 3062 3062 3061 3060 3059 3059 3058 3058 3057 3056
3071 3069 3068 3069 3066 3063 3062 3062 3063 3064 3064 3063 3062 3061 3060 3060 3060 3060 3059 3058 3059 3057 3054 3055 3057 3056 3055 3054 3051 3050 3051 3052 3054 3055 3055 3054 3054 3054 3054 3055 3056 3057 3057 3058 3059 3058 3058 3057 3057 3058 3060 3062 3063 3062 3060 3058 3057 3057 3056 3056 3058 3060 3060 3060 3061 3061 3061 3061 3061 3061 3062 3061 3061 3061 3060 3059 3059 3058 3057 3056 3056 3055 3054 3053 3052 3051
3069 3066 3066 3066 3063 3060 3061 3061 3061 3063 3061 3060 3059 3057 3056 3056 3056 3057 3056 3056 3057 3055 3051 3052 3053 3051 3051 3050 3046 3046 3048 3048 3049 3050 3050 3049 3049 3050 3050 3050 3051 3052 3053 3054 3054 3055 3055 3054 3053 3052 3054 3056 3058 3058 3057 3056 3054 3054 3052 3052 3054 3056 3057 3057 3058 3058 3058 3058 3058 3058 3058 3057 3057 3056 3056 3055 3055 3054 3053 3053 3052 3052 3051 3049 3048 3046
3066 3063 3064 3064 3060 3058 3058 3059 3059 3060 3058 3057 3055 3052 3051 3052 3054 3054 3054 3053 3053 3051 3049 3049 3048 3046 3046 3044 3043 3043 3044 3044 3044 3045 3045 3045 3045 3045 3046 3046 3046 3047 3048 3049 3050 3050 3051 3051 3050 3049 3048 3048 3050 3053 3054 3052 3052 3050 3048 3048 3050 3052 3053 3054 3054 3055 3055 3055 3055 3055 3055 3054 3053 3053 3052 3052 3051 3051 3050 3050 3049 3048 3047 3045 3044 3042
3062 3061 3061 3062 3058 3054 3055 3057 3057 3056 3055 3053 3049 3046 3048 3050 3051 3051 3050 3049 3049 3047 3046 3046 3044 3041 3040 3040 3041 3042 3041 3040 3040 3041 3042 3042 3041 3041 3042 3042 3042 3042 3042 3043 3045 3045 3045 3045 3045 3045 3045 3043 3043 3047 3049 3048 3047 3046 3045 3046 3047 3047 3049 3050 3051 3051 3052 3052 3051 3051 3051 3051 3050 3050 3050 3049 3048 3048 3047 3046 3045 3044 3042 3040 3039 3037
3061 3059 3059 3060 3056 3050 3052 3056 3054 3053 3053 3048 3042 3042 3046 3048 3047 3046 3046 3046 3045 3044 3042 3041 3039 3036 3037 3038 3039 3039 3038 3037 3037 3038 3038 3037 3037 3037 3036 3036 3037 3036 3035 3036 3037 3039 3040 3041 3040 3040 3041 3041 3039 3041 3043 3044 3043 3042 3042 3043 3043 3043 3045 3046 3047 3048 3048 3048 3047 3047 3047 3047 3047 3047 3046 3045 3045 3044 3043 3042 3040 3039 3037 3035 3033 3031
3059 3057 3056 3058 3053 3047 3050 3053 3052 3052 3049 3040 3037 3040 3044 3044 3043 3042 3042 3042 3042 3041 3039 3037 3035 3035 3037 3036 3035 3035 3036 3035 3035 3034 3033 3031 3031 3030 3029 3029 3030 3029 3029 3029 3030 3032 3033 3034 3035 3035 3036 3038 3038 3037 3038 3040 3040 3040 3040 3040 3039 3040 3041 3042 3043 3044 3044 3043 3043 3043 3043 3043 3043 3043 3042 3041 3041 3040 3039 3037 3036 3034 3032 3030 3028 3026
3056 3055 3054 3055 3051 3045 3047 3051 3052 3049 3040 3031 3035 3040 3040 3040 3040 3039 3038 3037 3038 3037 3036 3034 3034 3035 3035 3033 3033 3033 3032 3031 3030 3028 3026 3026 3026 3025 3024 3025 3025 3024 3024 3024 3025 3027 3028 3027 3027 3030 3030 3032 3035 3034 3033 3035 3036 3037 3037 3036 3036 3037 3037 3038 3039 3040 3039 3039 3039 3039 3039 3039 3039 3039 3038 3037 3037 3036 3035 3034 3032 3030 3028 3025 3023 3021
3053 3053 3052 3053 3050 3045 3045 3049 3049 3041 3031 3029 3035 3038 3037 3038 3037 3034 3033 3033 3033 3033 3032 3032 3032 3032 3031 3031 3030 3029 3027 3026 3024 3021 3021 3023 3023 3022 3021 3020 3019 3018 3019 3020 3020 3021 3023 3023 3023 3025 3027 3028 3028 3029 3029 3031 3032 3033 3033 3032 3033 3033 3033 3035 3035 3035 3035 3035 3034 3035 3035 3035 3035 3035 3034 3033 3033 3031 3030 3029 3027 3025 3022 3019 3017 3016
3050 3050 3050 3050 3048 3045 3043 3044 3041 3034 3029 3031 3034 3034 3034 3035 3032 3030 3029 3029 3030 3030 3029 3029 3028 3028 3028 3027 3026 3024 3022 3022 3020 3019 3020 3020 3019 3018 3016 3014 3014 3014 3015 3016 3015 3016 3018 3020 3020 3021 3023 3023 3022 3023 3024 3027 3029 3029 3029 3029 3030 3030 3030 3032 3031 3030 3030 3030 3030 3031 3031 3031 3031 3031 3030 3030 3029 3027 3026 3024 3022 3020 3017 3014 3012 3011
3045 3046 3046 3045 3044 3042 3040 3037 3035 3032 3029 3028 3030 3031 3031 3029 3028 3028 3026 3025 3027 3027 3025 3024 3024 3023 3023 3022 3021 3020 3019 3018 3017 3017 3018 3017 3014 3012 3012 3011 3011 3011 3010 3010 3011 3011 3013 3014 3015 3016 3017 3017 3017 3017 3019 3022 3025 3026 3025 3026 3026 3026 3027 3029 3028 3026 3026 3025 3025 3026 3027 3027 3028 3027 3027 3026 3025 3023 3021 3019 3017 3015 3012 3009 3007 3006
3040 3041 3041 3041 3039 3039 3038 3034 3033 3031 3025 3024 3028 3028 3025 3025 3026 3027 3025 3023 3024 3023 3021 3021 3020 3019 3019 3019 3018 3017 3016 3015 3013 3013 3013 3011 3008 3008 3009 3008 3008 3006 3006 3005 3005 3006 3007 3007 3008 3010 3011 3012 3012 3012 3015 3019 3022 3022 3022 3022 3023 3023 3025 3025 3024 3024 3023 3021 3021 3022 3023 3024 3023 3023 3022 3022 3020 3019 3017 3015 3013 3010 3007 3004 3002 3001
3036 3036 3038 3037 3035 3036 3035 3032 3030 3027 3023 3024 3027 3024 3022 3023 3024 3024 3024 3021 3020 3019 3018 3018 3018 3017 3016 3015 3014 3014 3013 3011 3009 3009 3008 3006 3004 3005 3004 3003 3002 3002 3001 3000 2999 2999 3000 3001 3002 3002 3003 3004 3006 3009 3013 3017 3019 3019 3020 3019 3020 3021 3022 3022 3022 3022 3020 3018 3018 3020 3020 3020 3020 3020 3019 3018 3017 3015 3013 3011 3008 3005 3002 2999 2998 2995
3033 3033 3034 3032 3030 3030 3030 3028 3026 3024 3022 3024 3025 3021 3020 3021 3021 3022 3021 3018 3017 3016 3015 3015 3015 3014 3013 3012 3011 3011 3010 3008 3005 3004 3003 3002 3001 3000 2999 2998 2997 2997 2995 2995 2994 2993 2993 2995 2997 2997 2995 2996 3001 3007 3012 3014 3015 3016 3017 3017 3017 3018 3019 3019 3020 3018 3016 3016 3017 3018 3018 3017 3017 3017 3016 3015 3013 3011 3009 3006 3003 3000 2996 2995 2993 2991
3030 3030 3030 3028 3027 3026 3026 3024 3023 3021 3021 3022 3020 3018 3018 3019 3019 3018 3017 3015 3014 3014 3013 3012 3013 3012 3011 3010 3009 3007 3006 3004 3003 3000 2998 2997 2996 2995 2994 2993 2992 2991 2990 2988 2988 2988 2988 2989 2991 2993 2993 2994 2999 3005 3007 3009 3011 3013 3015 3016 3016 3016 3017 3017 3016 3014 3014 3015 3016 3016 3016 3016 3015 3014 3013 3011 3009 3007 3005 3002 2999 2995 2992 2990 2988 2986
3029 3028 3027 3026 3024 3024 3023 3021 3020 3018 3018 3018 3017 3016 3017 3017 3016 3015 3013 3012 3012 3011 3010 3009 3009 3009 3008 3007 3006 3004 3002 3001 2999 2997 2995 2994 2991 2989 2988 2987 2987 2986 2985 2983 2983 2983 2984 2985 2987 2989 2990 2992 2996 3000 3003 3006 3008 3010 3013 3014 3015 3015 3015 3013 3013 3013 3014 3015 3014 3014 3014 3014 3012 3011 3009 3007 3005 3002 2999 2997 2994 2991 2989 2986 2984 2981
3027 3026 3024 3023 3023 3021 3020 3019 3017 3016 3016 3016 3015 3015 3015 3014 3013 3012 3011 3010 3010 3008 3007 3005 3005 3004 3004 3002 3001 3000 2998 2997 2995 2993 2991 2989 2987 2986 2983 2982 2981 2980 2979 2979 2979 2980 2981 2983 2984 2986 2988 2990 2994 2998 3002 3004 3006 3008 3011 3012 3012 3012 3011 3010 3011 3013 3013 3013 3012 3012 3012 3011 3010 3007 3005 3002 3000 2997 2994 2992 2990 2987 2985 2982 2980 2977
3024 3023 3021 3020 3020 3019 3017 3015 3015 3015 3015 3014 3014 3014 3013 3012 3011 3010 3008 3007 3007 3005 3003 3002 3001 3001 2999 2998 2997 2995 2994 2992 2991 2989 2987 2985 2983 2982 2979 2977 2975 2974 2973 2975 2976 2978 2979 2980 2981 2983 2986 2989 2992 2997 3000 3001 3004 3006 3008 3008 3010 3010 3008 3008 3010 3011 3010 3010 3010 3010 3009 3008 3006 3004 3001 2998 2996 2993 2991 2989 2987 2984 2981 2979 2975 2972
3021 3021 3020 3018 3018 3017 3014 3012 3011 3011 3012 3012 3012 3011 3010 3010 3008 3006 3005 3004 3003 3001 3000 2999 2998 2997 2996 2994 2992 2991 2989 2988 2987 2985 2983 2981 2979 2978 2975 2973 2971 2969 2967 2969 2973 2975 2977 2978 2980 2983 2986 2989 2991 2994 2997 2999 3002 3003 3004 3005 3007 3007 3006 3006 3007 3007 3006 3007 3007 3007 3007 3005 3003 3000 2998 2995 2993 2991 2989 2986 2984 2981 2978 2975 2972 2969
3019 3018 3016 3015 3014 3013 3010 3008 3008 3008 3008 3009 3008 3007 3007 3007 3005 3002 3001 3000 2999 2998 2997 2996 2995 2993 2992 2991 2988 2987 2985 2984 2983 2981 2979 2977 2976 2974 2973 2971 2970 2968 2966 2967 2970 2974 2976 2978 2981 2984 2987 2989 2990 2992 2995 2998 2999 3001 3002 3003 3004 3004 3004 3004 3004 3004 3004 3005 3005 3005 3004 3002 3000 2998 2995 2993 2990 2988 2986 2984 2982 2979 2975 2972 2969 2966
3016 3014 3012 3012 3011 3008 3005 3005 3006 3006 3005 3005 3004 3003 3003 3003 3000 2997 2996 2997 2996 2995 2993 2993 2991 2990 2989 2988 2985 2983 2982 2981 2979 2977 2975 2974 2972 2971 2970 2969 2970 2970 2968 2968 2970 2972 2975 2978 2982 2985 2987 2987 2989 2991 2994 2996 2998 2999 3000 3001 3001 3001 3002 3001 3001 3002 3003 3004 3004 3003 3002 3000 2998 2996 2994 2991 2989 2987 2985 2982 2980 2977 2974 2970 2966 2962
3012 3010 3009 3009 3008 3005 3002 3002 3002 3002 3001 3001 3000 3000 2999 2998 2996 2994 2994 2993 2992 2991 2990 2989 2988 2987 2986 2985 2983 2980 2978 2977 2975 2973 2972 2970 2969 2968 2967 2967 2969 2970 2969 2968 2969 2971 2975 2979 2982 2984 2985 2987 2988 2990 2993 2996 2997 2998 2998 2998 2999 3000 3000 2999 2999 3001 3002 3003 3003 3002 3000 2998 2997 2995 2993 2990 2988 2986 2984 2981 2978 2974 2971 2968 2964 2960
3010 3007 3006 3006 3004 3002 3000 2999 2999 2998 2996 2996 2997 2996 2995 2993 2992 2992 2991 2989 2988 2987 2987 2986 2985 2983 2982 2981 2979 2977 2975 2973 2971 2969 2968 2967 2966 2966 2966 2967 2968 2969 2968 2968 2970 2972 2976 2979 2981 2983 2984 2986 2987 2989 2992 2995 2996 2995 2996 2998 2998 2997 2997 2998 2998 3000 3001 3001 3001 3000 2998 2997 2996 2994 2991 2989 2987 2985 2982 2979 2976 2973 2969 2966 2962 2958
3006 3004 3003 3003 3001 2998 2997 2996 2996 2995 2992 2991 2992 2992 2991 2990 2988 2988 2988 2987 2985 2985 2984 2983 2982 2980 2979 2978 2976 2973 2970 2969 2967 2966 2965 2965 2965 2965 2966 2967 2968 2968 2968 2970 2972 2975 2977 2980 2982 2984 2984 2985 2987 2989 2991 2994 2995 2993 2994 2996 2996 2995 2996 2997 2998 2999 3000 2999 2999 2998 2997 2996 2994 2992 2990 2988 2986 2984 2980 2976 2974 2971 2968 2964 2960 2956
3003 3001 3000 3000 2997 2994 2993 2993 2993 2991 2989 2988 2988 2988 2988 2987 2986 2985 2985 2984 2983 2983 2982 2980 2978 2977 2976 2975 2973 2969 2966 2964 2962 2961 2962 2963 2963 2964 2965 2967 2967 2967 2969 2972 2975 2978 2979 2980 2982 2984 2985 2985 2986 2988 2990 2993 2993 2992 2993 2994 2994 2994 2995 2996 2997 2999 2999 2998 2998 2997 2996 2995 2993 2991 2989 2987 2985 2982 2979 2975 2971 2968 2965 2962 2958 2954